Flag for China Weather past 2 weeks in Lanzhou, Gansu, China

Now
48 °F

Fog.


Feels Like: 48 °F
Forecast: 48 / 68 °F
Wind: 1 mph from North

Location: Lanzhou / Zhongchuan

Current Time: Oct 1, 2014 at 6:11:38 AM

Latest Report: Oct 1, 2014 at 5:00 AM


Visibility: 2 mi

Pressure: 30.21 "Hg

Humidity: 94%

Dew point: 46 °F

Location of LanzhouLocation

Historic Weather in Lanzhou — Graph

°F

Lanzhou temperature yesterday

Maximum temperature yesterday: 64 °F (at 1:00 PM)
Minimum temperature yesterday: 46 °F (at 4:00 AM)
Average temperature yesterday: 54 °F

Past Weeks' High & Low Weather Summary

 TemperatureHumidityPressure
High75 °F (Sep 18, 4:00 PM)100% (Sep 18, 4:00 AM)30.30 "Hg (Sep 18, 4:00 AM)
Low41 °F (Sep 24, 5:00 AM)31% (Sep 19, 3:00 PM)29.89 "Hg (Sep 25, 3:00 PM)
Average55 °F78%30.14 "Hg
* Reported Sep 16 5:00 AM — Oct 1 5:00 AM, Lanzhou, Weather by CustomWeather, © 2014

Note: Actual official high and low records may vary slightly from our data, if they occured in-between our weather recording intervals... More about our weather records

Advertising

Lanzhou weather history for previous 24 hours

 ConditionsComfort  
Time TempWeatherWind HumidityBarometerVisibility
5:00 AM
Oct 1
48 °FFog.1 mph94%30.21 "Hg2 mi
4:00 AM48 °FFog.1 mph94%30.21 "Hg2 mi
3:00 AM48 °FFog.3 mph94%30.21 "Hg2 mi
2:00 AM50 °FFog.1 mph94%30.21 "Hg2 mi
1:00 AM50 °FPassing clouds.1 mph94%30.21 "Hg4 mi
12:00 AM50 °FFog.3 mph94%30.24 "Hg2 mi
11:00 PM
Sep 30
48 °FFog.No wind100%30.21 "Hg1 mi
10:00 PM50 °FFog.1 mph94%30.21 "Hg2 mi
9:00 PM50 °FPassing clouds.3 mph94%30.18 "HgN/A
8:00 PM54 °FPassing clouds.No wind88%30.15 "HgN/A
7:00 PM54 °FPartly sunny.1 mph82%30.12 "HgN/A
6:00 PM52 °FThunderstorms. Partly sunny.No wind88%30.12 "HgN/A
5:00 PM54 °FThunderstorms. Scattered clouds.17 mph77%30.12 "HgN/A
4:00 PM61 °FSprinkles. Scattered clouds.20 mph52%30.07 "HgN/A
3:00 PM64 °FScattered clouds.6 mph64%30.04 "HgN/A
2:00 PM64 °FPassing clouds.3 mph64%30.07 "HgN/A
1:00 PM64 °FScattered clouds.3 mph64%30.07 "HgN/A
12:00 PM63 °FScattered clouds.3 mph68%30.09 "HgN/A
11:00 AM61 °FScattered clouds.3 mph72%30.09 "HgN/A
10:00 AM59 °FPassing clouds.1 mph72%30.09 "HgN/A
9:00 AM55 °FPassing clouds.1 mph82%30.09 "HgN/A
8:00 AM50 °FScattered clouds.6 mph94%30.09 "HgN/A
7:00 AM48 °FPassing clouds.1 mph94%30.09 "HgN/A
6:00 AM48 °FClear.3 mph94%30.09 "Hg10 mi
Weather by CustomWeather, © 2014

See weather overviewHow to use our weather pages